Powrót do katalogu

KUIPER-00581

AktywnyŁącznośćLEO
NORAD 69273·PAYLOAD·🇺🇸 United States

Wystrzelony May 29, 2026 z Vandenberg Space Force Base

Loading…

Następne Przeloty (najbliższe 24 godziny)

TLE

ŚwieżeSource: CelesTrak SupGP

Epoka: Sep 14, 2026, 22:27 UTC

1 69273C 26118G   26257.93587963  .00003124  00000+0  40887-3 0  2573
2 69273  51.9025   6.2969 0001368 170.0673 111.3130 14.79933775    11

Śledź KUIPER-00581 w czasie rzeczywistym z AllMySat

Download on the App Store